TimeICT,TemperatureF,Dew PointF,Humidity,Sea Level PressureIn,VisibilityMPH,Wind Direction,Wind SpeedMPH,Gust SpeedMPH,PrecipitationIn,Events,Conditions,WindDirDegrees,DateUTC
12:00 AM,73.4,62.6,69,29.98,5.6,NNW,9.2,-,N/A,,Partly Cloudy,340,2013-03-04 17:00:00
12:30 AM,73.4,60.8,65,29.95,5.6,North,9.2,-,N/A,,Partly Cloudy,350,2013-03-04 17:30:00
7:00 AM,71.6,66.2,83,30.01,5.6,Calm,Calm,-,N/A,,Scattered Clouds,0,2013-03-05 00:00:00
7:30 AM,73.4,64.4,73,30.01,5.6,Calm,Calm,-,N/A,,Scattered Clouds,0,2013-03-05 00:30:00
8:00 AM,75.2,64.4,69,30.01,5.6,North,3.5,-,N/A,,Scattered Clouds,350,2013-03-05 01:00:00
8:30 AM,75.2,64.4,69,30.04,5.6,Variable,3.5,-,N/A,,Scattered Clouds,0,2013-03-05 01:30:00
9:00 AM,82.4,62.6,51,30.04,5.6,Variable,1.2,-,N/A,,Scattered Clouds,0,2013-03-05 02:00:00
9:30 AM,82.4,62.6,51,30.04,5.6,Variable,1.2,-,N/A,,Scattered Clouds,0,2013-03-05 02:30:00
10:00 AM,82.4,62.6,51,30.04,5.6,Variable,1.2,-,N/A,,Scattered Clouds,0,2013-03-05 03:00:00
10:30 AM,84.2,60.8,45,30.04,6.2,Variable,3.5,-,N/A,,Scattered Clouds,0,2013-03-05 03:30:00
11:00 AM,82.4,62.6,51,30.01,6.2,East,4.6,-,N/A,,Scattered Clouds,90,2013-03-05 04:00:00
11:30 AM,84.2,62.6,48,30.01,6.2,ENE,4.6,-,N/A,,Scattered Clouds,60,2013-03-05 04:30:00
12:00 PM,86.0,60.8,43,29.98,6.2,Variable,3.5,-,N/A,,Scattered Clouds,0,2013-03-05 05:00:00
12:30 PM,86.0,62.6,45,29.95,6.2,NE,6.9,-,N/A,,Scattered Clouds,40,2013-03-05 05:30:00
1:00 PM,87.8,62.6,43,29.95,6.2,NNW,8.1,-,N/A,,Scattered Clouds,330,2013-03-05 06:00:00
1:30 PM,87.8,60.8,40,29.92,6.2,NNE,8.1,-,N/A,,Scattered Clouds,30,2013-03-05 06:30:00
2:00 PM,87.8,62.6,43,29.89,6.2,NW,9.2,-,N/A,,Scattered Clouds,320,2013-03-05 07:00:00
2:30 PM,89.6,62.6,40,29.89,6.2,NW,8.1,-,N/A,,Scattered Clouds,320,2013-03-05 07:30:00
3:00 PM,89.6,62.6,40,29.86,6.2,NNW,6.9,-,N/A,,Scattered Clouds,330,2013-03-05 08:00:00
3:30 PM,89.6,62.6,40,29.86,6.2,NW,9.2,-,N/A,,Scattered Clouds,310,2013-03-05 08:30:00
4:00 PM,87.8,62.6,43,29.86,6.2,NW,9.2,-,N/A,,Scattered Clouds,310,2013-03-05 09:00:00
4:30 PM,87.8,62.6,43,29.86,6.2,NW,6.9,-,N/A,,Partly Cloudy,320,2013-03-05 09:30:00
5:00 PM,87.8,62.6,43,29.86,6.2,NW,6.9,-,N/A,,Partly Cloudy,310,2013-03-05 10:00:00
5:30 PM,87.8,62.6,43,29.86,5.6,NW,6.9,-,N/A,,Partly Cloudy,310,2013-03-05 10:30:00
6:00 PM,86.0,62.6,45,29.86,5.6,WNW,5.8,-,N/A,,Partly Cloudy,300,2013-03-05 11:00:00
6:30 PM,86.0,62.6,45,29.89,5.6,WNW,5.8,-,N/A,,Partly Cloudy,300,2013-03-05 11:30:00
7:00 PM,84.2,64.4,51,29.89,5.6,WNW,4.6,-,N/A,,Partly Cloudy,300,2013-03-05 12:00:00
7:30 PM,84.2,64.4,51,29.89,5.6,NW,4.6,-,N/A,,Partly Cloudy,310,2013-03-05 12:30:00
8:00 PM,82.4,64.4,54,29.92,5.6,NW,5.8,-,N/A,,Partly Cloudy,320,2013-03-05 13:00:00
8:30 PM,82.4,64.4,54,29.92,5.6,NNW,5.8,-,N/A,,Partly Cloudy,340,2013-03-05 13:30:00
9:00 PM,82.4,62.6,51,29.92,5.6,North,6.9,-,N/A,,Partly Cloudy,350,2013-03-05 14:00:00
9:30 PM,80.6,64.4,58,29.95,5.6,NNW,4.6,-,N/A,,Partly Cloudy,340,2013-03-05 14:30:00
10:00 PM,80.6,64.4,58,29.95,5.6,NNW,4.6,-,N/A,,Partly Cloudy,330,2013-03-05 15:00:00
10:30 PM,78.8,64.4,61,29.95,5.6,NNW,3.5,-,N/A,,Partly Cloudy,330,2013-03-05 15:30:00
11:00 PM,78.8,64.4,61,29.95,5.6,NNW,4.6,-,N/A,,Partly Cloudy,340,2013-03-05 16:00:00
11:30 PM,78.8,64.4,61,29.92,5.6,NNW,4.6,-,N/A,,Partly Cloudy,330,2013-03-05 16:30:00